STARLINK-36624, 67636

Orbit data source: Space-Track

STARLINK-36624, 67636 is a payload satellite owned by SpaceX/Seattle (US) in LEO that was launched on Fri, 30 Jan 2026 UTC via an FALCON 9 launch vehicle from the Air Force Eastern Test Range (AFETR). Payload-class satellites include a variety of spacecraft equipped with specific instruments for various scientific and technological missions. These include communications satellites like Starlink; space stations such as the ISS; scientific satellites like the Hubble; Earth observation satellites from companies like Planet Labs, Umbra, and HawkEye 360; GPS; miniature CubeSats for education and research; and military/defense satellites.

Loading next visibility...
Identifier
67636, 2026-020V
Orbit
LEO
Country
Flag of USUS
Related business
Manufacturer
SpaceX/Seattle
Mission
Operational spacecraft
Bus & Motor
STARLINK V2MO, Unknown motor
Mass
575 kg wet, ~530 kg dry
Launch date (UTC)
2026-01-30 (2 months ago)
Launch vehicle
FALCON 9
Launch site
Air Force Eastern Test Range (AFETR)
Object type
Payload
Rocket body
Debris
Shape & HBR
Unknown shape, 17.7 m
Radar Cross Section
RCS unknown

Expand to show TLE details & history
Last TLE update: 5 hours ago

TLE from 5 hours ago
0 STARLINK-36624
1 67636U 26020V   26104.82131181  .00006979  00000-0  26285-3 0  9993
2 67636  43.0034 295.3462 0000807 273.2417  86.8343 15.27586147 11646
Epoch: 2026-04-14T19:42Z
TLE epoch observation values (Epoch: 2026-04-14T19:42:41.340Z)
Latitude
0.00003°
Longitude
156.68192°
Altitude
482.776 km
Speed
7.626 km/s
True Right ascension
19h 41m 23s
True Declination
0° 00' 00"
Sunlit
Object was in daylight at epoch
Visualization orbit readout
Latitude
Unknown
Longitude
Unknown
Altitude
Unknown
Speed
Unknown
Apparent Right ascension
Unknown
Apparent Declination
Unknown
Sunlit
N/A
Visualization observer readout
Local Sidereal Time
07:06:57
Azimuth
Unknown
Elevation
Unknown
Doppler factor
Unknown
Orbital elements
Apogee altitude
485.529 km
Perigee altitude
484.421 km
Semi-major axis
6,863.112 km
Eccentricity
0.00008
Inclination
43.0034°
RAAN
295.3462°
Arg. of periapsis
273.2417°
True anomaly
86.84353°
Mean anomaly
86.8343°
Eccentric anomaly
86.83892°
Mean motion
3.81735 °/min
Orbital period
94.31 mins
BSTAR
0.00026285
Loading maneuver chart data...
Computing Atmospheric mass density...
Loading historical data...
Loading historical data...
Loading historical data...
Loading historical data...
Loading historical data...
Loading historical data...
Loading historical data...

Documentation

Showing up to 5 results
|